Simultaneous Nadir Overpasses (SNOs) Predictions

Prediction of SNOs between FY3D and METOP-C Satellite Orbit:

Table of predicted SNOs for the next 14.0 days since TLE Epoch: 12/17/2022
Index Date (FY3D) Time (FY3D) Lat,Lon (FY3D) SZA (FY3D ) Date (METOP-C) Time (METOP-C) Lat,Lon (METOP-C) SZA (METOP-C ) Distance(km) Time Diff (sec)
1 12/21/2022 21:41:14 74.92,-151.04 98.34 12/21/2022 21:42:22 74.85,-148.72 98.22 67.61 68
2 12/21/2022 22:31:55 -74.74, 16.80 81.86 12/21/2022 22:33:06 -74.68, 18.16 81.95 40.42 71
3 12/21/2022 23:22:38 74.55,-175.38 97.94 12/21/2022 23:23:51 74.49,-175.04 97.87 12.50 73
4 12/22/2022 00:13:21 -74.46, -7.83 82.15 12/22/2022 00:14:32 -74.47, -7.75 82.15 2.59 71
5 12/22/2022 01:04:08 74.47, 159.46 97.86 12/22/2022 01:05:13 74.47, 159.57 97.85 3.20 65
6 12/22/2022 01:54:52 -74.43, -33.12 82.19 12/22/2022 01:55:54 -74.45, -33.14 82.17 2.64 62
7 12/22/2022 02:45:39 74.43, 134.17 97.82 12/22/2022 02:46:35 74.45, 134.18 97.83 1.45 56
8 12/22/2022 03:36:24 -74.44, -58.53 82.18 12/22/2022 03:37:16 -74.43, -58.53 82.19 1.18 52
9 12/22/2022 04:27:11 74.45, 108.76 97.83 12/22/2022 04:27:57 74.43, 108.78 97.81 2.41 46
10 12/22/2022 05:17:55 -74.41, -83.82 82.21 12/22/2022 05:18:38 -74.41, -83.93 82.21 3.21 43
11 12/22/2022 06:08:42 74.41, 83.47 97.80 12/22/2022 06:09:19 74.40, 83.39 97.79 2.50 37
12 12/22/2022 06:59:26 -74.42,-109.24 82.20 12/22/2022 06:59:58 -74.44,-109.19 82.18 2.52 32
13 12/22/2022 07:50:13 74.42, 58.05 97.81 12/22/2022 07:50:39 74.43, 58.12 97.82 2.33 26
14 12/22/2022 08:40:58 -74.43,-134.65 82.19 12/22/2022 08:41:20 -74.42,-134.59 82.20 2.55 22
15 12/22/2022 09:31:44 74.39, 32.77 97.77 12/22/2022 09:32:01 74.41, 32.73 97.80 2.85 17
16 12/22/2022 10:22:29 -74.40,-159.94 82.22 12/22/2022 10:22:42 -74.40,-159.98 82.22 1.13 13
17 12/22/2022 11:13:16 74.40, 7.35 97.79 12/22/2022 11:13:23 74.39, 7.34 97.78 1.15 7
18 12/22/2022 12:04:01 -74.41, 174.64 82.21 12/22/2022 12:04:04 -74.38, 174.63 82.24 3.68 3
19 12/22/2022 12:54:47 74.37, -17.94 97.75 12/22/2022 12:54:45 74.37, -18.06 97.76 3.52 2
20 12/22/2022 13:45:32 -74.37, 149.35 82.25 12/22/2022 13:45:25 -74.40, 149.36 82.22 3.41 7
21 12/22/2022 14:36:19 74.38, -43.36 97.76 12/22/2022 14:36:06 74.40, -43.32 97.78 2.44 13
22 12/22/2022 15:27:04 -74.39, 123.94 82.23 12/22/2022 15:26:47 -74.38, 123.97 82.24 0.98 17
23 12/22/2022 16:17:51 74.39, -68.77 97.78 12/22/2022 16:17:28 74.38, -68.71 97.76 2.33 23
24 12/22/2022 17:08:35 -74.35, 98.65 82.27 12/22/2022 17:08:09 -74.36, 98.58 82.26 2.57 26
25 12/22/2022 17:59:22 74.36, -94.06 97.74 12/22/2022 17:58:50 74.36, -94.11 97.74 1.39 32
26 12/22/2022 18:50:07 -74.37, 73.23 82.26 12/22/2022 18:49:31 -74.34, 73.18 82.28 2.86 36
27 12/22/2022 19:40:54 74.37,-119.48 97.75 12/22/2022 19:40:11 74.39,-119.37 97.77 3.57 43
28 12/22/2022 20:31:39 -74.38, 47.82 82.24 12/22/2022 20:30:52 -74.37, 47.92 82.25 3.06 47
29 12/22/2022 21:22:25 74.34,-144.77 97.72 12/22/2022 21:21:33 74.37,-144.77 97.75 3.38 52
30 12/22/2022 22:13:10 -74.34, 22.53 82.28 12/22/2022 22:12:14 -74.35, 22.52 82.27 0.91 56
31 12/22/2022 23:03:57 74.35,-170.18 97.73 12/22/2022 23:02:55 74.35,-170.16 97.73 0.80 62
32 12/22/2022 23:54:42 -74.36, -2.89 82.27 12/22/2022 23:53:36 -74.33, -2.87 82.29 2.90 66
33 12/23/2022 00:45:28 74.31, 164.53 97.69 12/23/2022 00:44:17 74.33, 164.45 97.71 2.72 71
34 12/23/2022 01:36:13 -74.32, -28.17 82.30 12/23/2022 01:34:58 -74.31, -28.26 82.31 2.83 75
35 12/23/2022 02:26:55 74.08, 139.74 97.45 12/23/2022 02:25:44 74.06, 138.44 97.46 39.91 71
36 12/23/2022 03:17:37 -73.95, -52.60 82.70 12/23/2022 03:16:27 -73.95, -54.51 82.66 58.81 70



Historial Predications of SNOs between FY3D and METOP-C
